Wind_Speed
6 6 5 5 5 5 6 6 6 6 6 6 7 7 7 7 8 7 7 7 7 8 9 9 9 9 10 11 11 11 12 12 13 14 14 15 15 15 13 12 13 14 12 12 11 10 11 10 10 11 10 10 9 8 9 11 11 11 10 8 8 6 7 9 7 6 11 14 14 13 12 11 7 2 4 7 8 9 9 9 9 8 8 10 9
7 7 8 7 7 6 6 6 6 7 7 7 7 8 8 8 8 8 8 9 9 9 10 10 10 10 11 12 12 12 12 12 13 14 14 16 17 17 15 14 14 14 14 13 12 12 13 13 13 12 11 12 11 9 8 9 8 9 11 12 12 10 10 11 8 5 8 12 13 12 12 9 4 2 4 6 7 8 9 9 8 9 10 10 8
5 5 7 7 7 7 7 7 7 7 8 8 8 8 9 9 9 9 10 10 11 11 10 10 11 11 11 12 13 13 13 13 13 14 16 17 18 18 18 18 16 16 16 15 14 14 16 17 17 15 13 14 13 10 10 10 9 9 12 13 14 15 15 12 9 7 7 10 11 13 15 10 5 4 4 5 7 7 7 7 8 9 10 8 7
5 5 6 7 7 7 8 8 8 8 9 9 9 9 9 9 9 10 10 10 11 11 11 11 11 11 12 12 13 14 14 14 15 16 17 16 17 18 18 19 19 19 19 17 16 17 18 18 16 14 14 15 15 13 12 12 12 13 15 14 13 15 16 13 11 11 10 9 10 14 17 14 9 7 6 7 8 5 5 8 9 7 7 8 8
4 4 5 6 6 7 7 8 9 9 10 9 10 10 9 10 10 10 11 11 12 12 12 12 11 12 13 13 14 14 14 15 15 16 17 18 18 18 17 18 19 20 20 19 19 19 19 18 15 14 15 16 17 17 16 14 15 16 16 15 13 12 13 14 15 17 15 12 12 15 16 15 13 11 11 10 8 5 5 7 6 5 7 9 9
3 3 4 4 5 6 7 9 9 9 10 9 10 10 10 10 11 11 11 12 12 12 12 13 13 14 14 14 15 15 14 14 15 15 16 17 18 18 18 19 20 19 18 18 19 20 19 19 19 19 20 20 19 19 18 17 17 16 14 13 13 13 12 12 13 15 16 15 15 16 15 13 13 14 14 12 12 9 6 4 3 4 7 8 6
3 3 4 4 4 5 6 7 7 8 9 9 10 10 11 11 12 12 12 12 13 14 13 14 14 14 15 15 16 16 16 15 15 15 16 16 16 17 19 20 21 20 20 19 19 20 20 21 21 20 20 21 21 21 20 19 18 17 16 15 15 15 15 14 13 14 14 13 13 16 16 15 16 16 14 11 14 11 6 3 1 4 7 8 7
5 5 5 5 5 6 6 7 7 7 8 9 10 11 11 12 12 13 13 14 15 15 14 15 16 16 17 17 18 18 18 18 17 16 17 16 17 18 18 19 20 19 19 20 20 21 22 22 22 22 21 21 20 20 20 19 18 18 18 17 17 17 17 16 15 16 16 14 14 17 18 18 17 13 10 10 12 9 4 3 0 3 6 9 10
7 5 5 6 6 6 7 8 7 7 9 10 11 12 12 13 14 14 15 15 15 16 16 17 18 18 18 18 20 21 22 22 21 20 19 18 18 18 19 19 20 20 19 20 21 21 22 22 23 24 24 23 22 21 19 18 18 19 19 19 19 19 19 18 16 16 16 15 16 18 19 18 16 11 10 11 10 7 4 2 1 3 6 10 12
10 7 4 5 6 7 8 8 8 8 9 10 11 12 12 12 13 15 14 14 15 17 18 20 20 19 19 20 21 23 23 23 22 21 21 21 20 19 19 19 20 20 21 21 21 21 22 23 23 24 24 23 23 23 23 22 21 22 21 20 20 20 19 20 19 19 18 16 16 17 15 15 17 17 16 16 12 7 5 4 3 4 6 11 12
4 2 3 5 7 8 7 7 9 9 9 10 12 14 14 15 16 16 15 15 17 18 19 20 20 21 21 22 23 24 25 24 23 22 22 24 25 25 24 22 21 21 21 22 23 23 23 23 24 24 24 25 25 26 27 27 26 26 26 25 24 22 20 18 18 19 19 17 17 17 13 11 14 16 15 13 11 9 9 9 9 7 6 9 9
4 4 5 6 7 8 9 9 11 12 13 13 15 16 17 17 18 18 18 19 19 18 19 19 20 21 22 23 25 24 23 22 23 23 22 21 24 27 27 26 25 24 23 21 22 24 24 24 25 26 25 25 25 25 27 29 30 30 30 30 30 29 27 25 22 20 18 16 15 16 16 15 16 16 13 10 9 10 10 11 12 10 7 9 10
3 5 6 7 9 10 11 11 13 15 17 17 18 19 19 19 21 21 22 23 22 21 20 19 20 21 22 24 23 21 19 21 23 23 21 19 21 25 28 30 27 22 18 18 20 21 21 21 22 23 24 24 23 22 22 24 27 31 33 34 34 33 32 32 30 27 23 20 17 17 18 17 17 16 13 9 7 8 9 10 10 8 8 12 13
7 8 8 9 11 12 13 14 16 17 17 17 18 18 18 20 21 22 22 23 23 23 22 21 21 22 24 24 21 19 20 22 23 24 25 25 25 26 27 27 24 20 20 21 24 26 25 24 25 25 24 23 24 25 25 24 25 27 30 34 36 35 34 33 32 32 30 28 26 26 25 21 18 16 14 11 10 9 7 8 8 8 10 12 12
11 10 9 11 12 13 13 14 15 15 15 15 15 15 16 18 18 18 19 21 21 22 22 22 22 21 21 21 19 18 19 19 21 22 24 25 25 24 23 20 19 21 24 26 29 32 29 25 26 29 29 25 23 25 28 28 26 24 24 29 33 35 36 35 34 33 33 33 34 34 34 31 27 23 19 16 15 14 11 10 10 11 11 11 12
11 10 11 12 12 12 12 12 12 13 13 13 14 15 15 16 16 17 19 19 20 20 20 20 20 20 20 18 16 15 15 16 17 18 19 21 21 20 19 18 18 20 22 23 25 29 27 22 22 27 29 28 24 22 22 21 21 23 25 27 29 30 32 35 35 34 34 35 36 37 37 35 33 32 27 21 18 17 15 14 14 15 14 13 14
11 11 11 11 10 11 11 11 12 13 13 12 13 14 15 15 16 16 18 19 19 18 18 19 18 18 19 18 15 13 13 14 14 14 15 17 18 19 18 16 16 16 17 18 20 24 25 24 23 24 27 28 26 24 22 20 21 23 24 26 27 25 26 30 33 33 34 36 37 37 38 37 36 36 33 29 24 20 17 15 16 16 16 11 11
10 10 10 9 9 10 10 10 12 14 13 12 14 16 16 16 15 16 17 18 17 17 18 17 17 16 16 16 15 13 11 11 12 12 12 13 15 18 18 16 15 16 16 18 20 21 21 21 23 23 24 23 21 21 21 22 23 23 23 24 25 24 27 30 29 27 28 32 34 34 35 37 38 37 36 35 32 27 24 22 19 17 16 13 11
9 9 10 9 10 12 12 11 13 14 13 13 15 17 17 17 17 17 19 18 16 17 18 18 18 17 14 12 13 12 10 10 11 12 12 13 14 15 15 15 16 17 18 18 19 19 19 20 21 21 20 19 17 16 16 16 18 21 23 23 22 23 29 32 29 25 24 27 30 34 35 35 35 35 35 36 36 35 33 30 26 22 18 17 15
10 10 11 12 12 13 13 13 14 14 13 14 16 17 17 18 18 19 19 18 17 18 19 19 20 20 17 14 11 9 8 8 10 12 13 13 13 15 15 14 15 17 19 20 19 19 19 18 18 18 18 18 18 17 16 15 15 16 17 18 20 24 28 29 27 26 25 26 29 32 34 34 33 33 35 36 37 38 37 36 33 29 24 22 20
11 12 12 11 12 13 12 12 14 14 13 14 16 16 15 18 19 19 18 18 18 20 20 21 20 19 20 20 14 9 8 8 9 12 14 14 15 16 17 15 15 17 18 18 18 18 18 17 18 18 18 18 19 20 19 18 17 18 17 17 20 24 25 25 24 21 21 23 25 27 30 31 31 33 36 37 38 38 39 38 37 34 31 28 24
11 11 10 10 11 12 12 12 14 14 12 14 16 14 13 17 18 18 18 18 19 19 19 20 21 19 19 21 19 15 12 9 10 14 17 18 17 18 19 19 18 16 15 16 17 18 19 18 18 17 17 19 21 23 23 21 20 20 20 18 18 19 20 22 23 19 18 21 23 25 28 29 28 30 33 36 37 38 38 39 39 39 37 35 31
9 9 9 9 11 13 12 12 15 15 12 13 15 12 12 15 16 16 16 18 19 19 19 20 20 19 18 19 19 16 12 10 12 16 20 20 19 18 20 21 20 17 16 16 17 18 19 20 20 21 22 24 25 26 26 25 25 24 22 20 18 18 19 20 20 20 21 23 22 24 27 28 27 28 30 33 36 36 37 39 40 40 39 38 37
8 8 10 10 12 13 12 12 15 17 13 13 15 14 10 10 12 13 14 16 18 19 19 20 19 18 19 19 18 17 13 10 12 17 20 21 21 20 21 22 20 19 19 19 18 18 19 21 24 26 26 28 28 28 28 27 27 26 24 22 20 19 19 20 20 19 19 21 21 22 24 27 29 30 31 33 34 34 35 36 37 38 38 38 38
7 9 10 10 12 14 13 12 15 18 14 13 16 17 14 11 13 13 12 13 16 17 17 18 18 16 18 19 18 19 17 12 14 19 22 22 22 22 22 23 20 19 20 21 20 19 20 25 29 31 32 32 31 31 31 30 29 27 25 24 23 22 20 20 20 17 16 19 21 22 24 28 32 35 35 34 32 30 30 32 33 34 35 34 35
8 8 7 7 10 13 14 12 13 16 15 14 15 17 16 15 15 15 11 11 13 15 14 16 16 15 16 17 16 18 18 15 16 22 25 24 24 24 24 24 22 20 20 20 20 21 24 29 33 34 33 32 30 29 29 28 27 26 24 23 24 24 24 22 20 16 16 19 20 22 25 27 31 35 35 32 28 28 29 31 32 32 33 32 31
5 5 6 7 11 14 15 12 10 11 12 12 13 15 16 17 16 16 11 9 10 12 13 14 14 14 15 15 15 16 16 15 16 21 24 25 26 27 26 26 25 23 21 21 22 26 30 33 35 33 30 27 26 25 24 22 22 23 23 23 23 23 23 23 22 19 19 20 21 23 24 24 25 29 30 29 29 31 33 33 32 31 33 32 29
4 4 7 11 13 13 14 14 12 11 11 11 11 12 14 16 18 15 9 8 9 11 11 12 13 12 13 14 13 14 14 14 15 18 22 25 27 28 28 27 27 27 26 26 29 33 34 34 31 29 26 23 22 22 22 20 19 20 22 22 22 21 21 21 21 20 20 21 22 22 22 22 23 24 23 22 25 30 33 34 35 33 31 29 24
7 6 7 9 10 9 13 16 15 16 16 15 14 12 11 14 19 15 7 8 12 12 11 11 12 12 12 12 11 12 13 14 15 16 19 24 27 29 29 29 29 29 30 31 33 34 33 30 26 23 22 21 19 19 19 19 19 19 19 19 19 18 17 18 19 19 20 20 21 21 21 21 22 22 21 19 19 22 24 28 32 31 29 26 23
8 10 9 9 11 11 15 16 13 14 17 17 17 15 13 16 20 16 8 8 15 16 14 13 13 13 13 13 12 12 14 15 14 14 18 23 27 29 29 29 29 30 32 34 34 30 27 24 22 21 20 20 19 18 18 19 18 18 18 18 18 16 16 17 19 20 21 22 23 23 23 23 22 22 20 19 19 20 19 21 25 27 27 27 25
8 10 11 11 12 12 16 15 12 14 18 18 17 17 17 19 21 15 9 10 16 18 16 14 13 13 15 16 15 15 15 15 13 14 18 23 27 29 29 29 29 31 33 34 32 28 23 20 19 20 21 20 19 18 18 18 18 17 19 20 19 17 16 17 19 20 22 23 24 24 24 24 24 24 24 23 21 20 20 21 23 25 25 27 26
9 9 9 10 11 11 14 14 14 15 18 17 16 17 18 19 19 16 13 14 18 18 16 14 14 16 17 18 18 18 17 16 14 14 19 24 29 29 29 30 31 31 32 31 27 24 21 18 18 20 21 20 20 21 22 22 21 21 22 21 20 18 18 18 19 19 20 21 22 22 23 23 23 23 23 22 22 22 21 20 21 24 25 26 25
8 8 7 8 8 9 11 13 15 15 16 16 15 17 18 17 17 16 17 18 19 19 18 17 18 19 18 16 17 19 20 18 15 15 20 26 30 30 30 32 31 28 28 26 21 17 17 18 19 21 22 22 24 25 25 25 25 25 24 22 21 22 21 19 18 17 16 17 19 21 24 24 22 20 19 19 19 20 19 18 20 23 24 23 21
7 9 8 6 7 8 9 11 14 15 16 16 16 17 18 17 15 16 18 18 19 19 19 20 21 21 18 17 18 20 21 18 15 16 22 27 29 30 33 33 28 22 21 21 18 16 18 19 19 20 22 23 24 25 25 25 25 26 25 24 24 24 23 21 20 19 18 18 20 20 21 21 20 20 21 21 19 18 18 18 18 18 20 21 20
7 10 6 2 5 9 10 11 14 15 15 16 17 18 18 16 15 16 17 18 18 18 18 20 22 21 21 22 21 19 15 14 13 19 25 27 28 31 32 28 22 19 20 21 19 19 20 20 19 20 21 22 22 23 23 24 24 24 24 25 26 25 25 25 25 25 24 22 20 18 18 19 20 21 22 23 21 19 20 20 18 18 19 20 19
7 8 2 4 7 11 12 12 13 14 15 17 18 18 16 15 16 16 17 18 18 19 20 21 21 21 22 23 20 19 15 14 17 22 25 26 27 28 26 21 19 19 20 20 20 21 22 21 20 21 22 22 22 23 24 24 24 24 24 25 25 24 24 25 27 28 26 24 21 19 17 18 19 18 18 20 21 21 20 20 19 19 19 18 18
8 5 6 7 10 12 11 11 12 13 15 16 16 15 15 16 17 17 18 19 19 19 20 20 20 21 21 20 19 21 21 21 22 24 24 24 23 23 22 20 20 20 19 19 21 21 21 21 22 22 23 23 23 24 25 24 24 24 25 25 24 23 24 25 25 25 25 24 24 22 21 20 20 20 20 19 19 21 21 21 20 19 18 18 19
7 5 8 8 11 10 10 11 12 13 13 14 14 15 15 15 17 18 18 18 19 19 18 19 20 20 20 20 20 22 23 24 24 24 23 22 22 22 21 21 20 20 20 20 20 20 20 21 22 22 23 23 23 24 25 24 24 25 25 25 24 24 25 24 23 23 23 23 23 24 24 23 24 24 24 22 20 20 21 22 20 19 17 16 18
9 5 5 9 11 9 8 11 12 11 12 13 13 14 15 16 17 17 16 17 18 18 18 19 20 20 20 21 23 24 24 23 24 23 22 22 22 21 20 20 19 20 19 19 19 20 19 19 20 20 21 21 22 24 25 25 25 25 25 24 24 24 25 24 22 23 23 22 23 23 23 23 24 24 24 23 22 22 23 23 22 20 18 17 18
9 7 6 9 9 8 9 10 10 11 12 13 12 14 15 16 16 16 16 17 17 17 18 19 20 20 21 23 26 27 25 23 22 21 20 20 20 20 20 19 19 19 18 18 18 18 17 17 18 19 20 20 22 23 23 25 25 25 24 24 24 23 22 22 21 20 21 22 23 23 22 22 23 24 24 24 23 24 24 25 25 23 20 19 21
9 9 8 8 8 8 9 9 10 11 12 11 12 14 15 15 15 16 16 16 16 17 18 19 19 20 22 24 26 27 26 23 22 20 19 18 19 20 20 20 20 19 18 17 17 17 16 17 18 18 19 20 21 21 23 25 26 24 23 23 22 20 20 19 18 17 19 21 22 22 22 23 23 24 24 25 25 25 24 24 26 25 22 19 20
9 9 8 7 8 9 9 9 10 11 11 11 13 14 14 14 15 16 15 16 16 17 18 19 19 21 23 24 25 24 23 21 21 20 19 19 21 21 20 20 20 19 18 18 18 17 17 17 17 17 18 20 20 22 24 26 24 22 20 20 19 18 18 18 16 17 19 23 25 25 25 25 25 26 25 25 25 24 23 23 24 23 21 20 19
10 8 6 7 8 8 8 9 10 11 10 11 13 14 13 13 14 15 15 16 17 17 17 19 20 22 24 25 25 24 21 20 21 21 20 19 21 22 22 21 21 20 19 19 18 18 17 16 15 15 17 19 20 22 24 25 23 21 20 20 19 19 19 18 17 18 21 26 30 30 28 26 27 29 28 26 24 23 22 23 24 24 22 21 20
10 7 6 7 8 8 8 10 10 10 10 12 13 13 12 13 14 14 15 16 16 17 18 19 21 22 23 24 24 24 22 21 21 21 19 19 21 22 23 22 21 20 20 19 19 19 18 17 16 16 17 19 21 22 23 23 23 22 21 22 22 21 19 16 17 20 25 30 32 30 29 28 28 28 27 26 24 24 24 24 24 25 25 24 21
9 6 6 7 8 7 8 9 9 10 11 12 12 11 12 13 13 14 15 15 16 17 18 19 19 20 21 21 21 22 22 22 21 20 19 20 22 21 20 20 20 20 20 20 20 20 19 19 18 18 18 20 22 23 23 23 22 21 21 22 21 18 15 15 18 24 31 34 32 29 28 28 27 26 25 25 25 26 26 26 25 25 25 24 23
7 5 6 7 7 7 8 9 9 10 11 11 11 11 12 13 13 14 14 15 16 17 18 18 18 19 19 19 19 20 21 21 21 20 20 21 21 20 20 20 21 21 21 21 21 21 21 21 21 20 20 22 22 22 22 21 20 20 20 20 19 17 17 19 22 28 33 34 30 27 28 28 27 26 27 27 27 27 27 27 27 26 26 25 24
6 5 5 7 7 7 9 9 8 9 11 11 10 11 12 13 14 14 14 15 16 17 16 17 17 17 17 17 18 19 20 21 21 22 22 21 21 21 21 22 23 23 23 23 22 22 22 22 23 23 23 22 21 21 21 22 21 20 19 19 19 20 22 24 27 31 34 34 31 28 28 27 26 27 28 27 27 27 28 28 27 27 27 27 26
5 4 6 7 7 7 9 9 9 10 11 10 10 11 12 13 14 14 13 15 16 16 15 16 17 16 16 17 18 18 20 22 22 22 22 23 23 23 23 24 25 25 25 24 25 25 25 25 25 24 23 22 21 22 23 23 22 20 19 19 21 22 25 28 31 32 33 33 33 31 29 26 26 27 28 28 28 28 28 28 27 27 27 27 27
5 4 5 7 7 7 8 8 9 10 10 10 11 12 13 14 14 14 13 14 15 15 14 15 17 17 16 17 18 18 20 22 22 23 23 23 22 23 24 25 25 25 26 26 26 27 27 27 27 25 24 24 24 24 25 25 23 21 19 20 23 26 29 31 33 33 33 34 34 32 30 28 28 28 28 27 27 27 27 27 27 27 27 27 27
5 5 5 6 7 7 8 8 9 10 10 10 12 13 14 15 14 13 13 14 15 14 14 15 17 16 16 16 17 18 20 21 21 22 23 23 23 24 25 25 25 25 26 25 25 25 27 27 26 25 26 26 25 25 26 25 23 20 20 22 27 31 33 34 35 35 35 34 32 31 30 30 29 29 28 27 25 25 26 28 28 28 28 28 26
5 4 5 6 7 7 7 8 9 10 10 11 12 14 14 15 14 14 14 14 15 15 16 16 16 16 16 16 17 18 19 20 21 22 22 23 24 25 24 24 25 25 24 23 23 25 26 26 25 25 26 26 25 25 25 24 22 22 25 28 31 33 34 36 38 38 35 32 30 30 30 29 28 28 28 27 25 25 26 28 29 28 28 27 25
Wind_Direction
204 216 220 230 240 246 254 261 268 274 275 275 277 280 282 281 280 280 279 279 278 276 275 271 265 261 260 260 258 252 244 238 234 234 244 248 238 231 230 240 257 258 251 246 244 243 243 240 248 256 253 249 249 251 265 267 245 219 211 230 241 222 236 261 267 287 304 315 326 320 310 311 306 298 327 318 320 324 315 309 303 295 295 289 272
209 215 215 220 229 239 252 259 265 271 273 276 278 280 282 279 277 275 271 271 271 268 272 274 270 268 269 268 264 258 251 242 234 231 237 245 246 240 231 229 244 256 256 249 246 250 246 237 237 242 247 249 246 239 253 276 271 239 226 226 227 223 223 241 265 291 299 306 313 306 299 309 331 333 319 311 301 300 302 303 297 289 289 285 269
231 228 223 225 231 241 252 257 263 269 273 277 279 279 281 280 279 276 273 273 274 274 275 278 276 272 270 271 269 264 259 253 241 232 233 239 245 246 239 230 231 241 251 250 246 246 246 241 234 231 238 244 239 232 238 254 262 260 258 244 229 227 224 224 241 257 277 293 299 293 286 293 332 330 300 289 281 284 298 299 290 291 294 287 270
242 236 231 232 238 247 254 260 266 271 274 277 280 282 282 281 279 278 276 277 278 279 280 277 277 277 274 273 273 269 265 261 250 238 232 232 241 250 247 237 231 232 239 243 242 243 244 242 234 232 237 235 234 236 236 239 241 243 251 253 241 229 221 218 226 231 240 257 272 281 282 284 295 288 265 261 255 254 290 291 276 270 282 289 286
240 242 243 241 244 250 256 263 266 270 275 277 279 281 281 279 277 275 275 276 276 277 277 275 273 275 276 274 273 273 269 264 258 248 237 229 233 243 250 249 243 237 236 239 243 245 245 245 243 244 246 241 237 235 230 234 243 241 240 248 254 245 228 221 223 222 220 228 250 267 274 284 286 263 237 231 224 221 268 287 282 264 271 279 277
222 237 246 249 256 258 258 261 262 266 272 275 279 280 279 277 275 273 273 274 276 276 274 273 270 267 269 271 273 275 273 269 266 259 251 241 234 234 240 249 252 249 247 250 252 253 253 252 248 243 243 243 240 234 230 234 241 244 249 255 259 259 249 237 233 228 220 221 237 249 252 264 273 266 252 228 211 218 234 249 296 302 301 295 270
217 232 233 238 257 264 268 271 271 273 275 278 280 278 277 278 276 275 276 276 278 278 276 276 275 271 268 267 268 270 270 272 270 265 261 255 245 239 240 245 249 248 248 250 252 254 254 254 253 249 243 241 240 238 235 232 233 238 247 252 252 253 257 254 248 247 243 237 244 253 254 254 254 261 265 232 208 219 223 180 159 307 314 311 289
213 227 228 226 237 252 265 270 270 272 274 277 277 276 276 277 276 277 278 277 277 276 276 278 279 277 275 273 272 268 265 265 264 263 263 259 253 248 245 246 250 249 246 247 249 251 252 253 255 257 257 254 252 250 241 232 231 233 233 238 244 248 251 249 241 242 248 248 251 255 258 258 251 248 252 224 198 197 194 154 145 292 296 294 287
207 226 238 239 240 250 260 263 266 269 274 277 275 273 273 273 275 275 273 274 277 273 270 274 277 274 271 273 275 272 267 261 255 252 254 254 255 254 249 247 248 248 249 248 248 249 250 252 253 254 258 261 260 259 254 243 237 235 232 234 239 241 240 240 241 245 247 243 242 243 244 251 257 254 250 235 204 179 178 185 239 273 286 288 281
205 210 238 270 275 275 273 276 281 283 290 298 299 297 298 299 298 291 282 282 286 282 276 273 271 268 267 271 274 273 270 265 258 254 251 247 247 250 251 249 247 246 247 248 250 252 251 253 254 253 254 255 254 253 253 251 244 240 238 234 234 238 238 233 232 239 245 243 241 241 237 241 251 250 243 235 219 214 242 247 219 234 277 286 276
200 212 282 294 296 300 311 324 323 328 343 343 336 333 332 329 323 315 308 302 298 293 286 278 272 269 268 271 272 269 266 264 264 265 264 256 249 245 245 246 246 246 246 246 247 250 252 253 255 256 255 255 254 251 249 250 249 246 243 237 233 236 241 240 234 232 237 242 246 249 247 245 250 249 243 231 218 224 241 235 217 214 253 278 274
14 351 330 321 327 341 359 359 349 358 9 1 351 348 342 336 332 329 325 320 312 303 296 290 287 282 277 275 274 271 269 270 273 278 280 272 258 251 250 249 247 247 248 250 252 251 251 252 252 254 256 255 255 254 250 249 249 248 247 244 241 240 241 245 247 245 243 247 255 258 258 262 264 265 268 257 230 223 227 224 211 201 226 258 262
26 26 5 357 6 12 13 9 6 11 11 1 354 351 347 345 344 340 336 332 327 320 311 305 304 304 300 294 287 282 281 284 283 282 286 284 272 269 268 260 257 262 264 269 275 274 272 270 267 263 259 254 254 256 256 255 253 252 250 247 246 245 245 244 245 248 248 250 257 259 256 259 263 263 264 261 249 240 232 224 210 200 227 250 257
66 50 23 13 21 22 18 18 18 13 4 357 353 353 352 349 344 341 338 335 333 330 327 323 319 315 313 309 306 301 295 292 286 282 287 287 281 285 285 270 265 277 281 276 277 279 279 283 289 289 281 271 264 261 259 257 255 256 257 253 249 246 245 243 242 243 245 245 249 253 252 253 256 259 257 257 265 267 247 231 230 235 246 247 252
69 50 27 26 29 26 24 23 17 7 359 357 359 358 355 349 344 344 344 340 336 334 333 333 330 326 323 320 317 314 308 305 301 297 298 297 290 294 302 294 284 286 286 284 282 278 275 276 281 285 284 283 282 276 269 262 256 256 258 259 257 252 248 245 242 241 241 241 243 246 248 249 249 253 255 255 257 260 254 247 246 251 258 260 263
58 44 33 31 30 28 26 22 14 5 359 2 5 360 352 350 350 350 348 341 336 337 339 341 341 340 340 338 332 331 329 325 322 320 319 316 311 312 317 316 309 298 290 289 285 281 281 280 277 279 278 277 278 279 276 269 263 259 256 256 259 258 254 252 250 247 245 244 244 245 247 248 246 247 251 250 250 253 254 253 249 247 254 263 266
45 40 35 32 30 29 23 18 14 5 359 3 3 355 351 351 350 351 348 339 338 346 350 348 348 347 350 352 354 355 351 341 338 340 336 332 331 333 331 325 318 308 299 295 291 288 288 287 285 287 284 278 274 276 279 276 269 263 258 256 258 256 252 252 254 255 253 252 251 251 252 253 251 249 249 247 246 245 244 245 242 237 236 238 244
43 39 33 29 29 26 18 15 12 2 356 1 359 350 347 345 343 347 344 334 337 350 349 344 345 348 352 358 2 3 2 358 358 358 351 344 339 337 336 330 322 318 313 308 307 304 301 298 298 297 292 287 287 287 286 281 271 264 260 259 256 252 250 251 252 253 253 255 256 255 255 255 254 253 252 250 248 244 240 239 237 232 232 232 238
41 36 29 26 28 22 14 12 9 357 351 359 358 349 343 341 343 347 342 335 337 344 342 339 339 340 346 358 4 10 18 22 22 16 6 358 351 350 351 343 334 331 327 322 319 315 311 310 310 305 298 296 299 298 291 281 271 266 264 259 251 247 252 255 252 248 249 254 255 251 249 251 252 253 253 253 251 247 242 240 237 234 237 242 245
35 33 27 26 26 18 10 10 6 354 352 1 357 347 345 349 350 349 344 342 346 349 349 348 343 342 347 350 359 23 29 22 26 24 19 17 13 14 14 2 346 340 335 329 326 322 320 320 321 319 315 314 315 312 303 295 289 284 275 263 253 253 258 261 259 255 254 257 257 253 249 249 249 248 247 248 249 248 243 240 237 234 235 238 242
35 33 28 27 26 16 6 9 4 352 355 5 353 344 355 358 352 350 351 354 358 359 358 354 350 352 358 358 7 33 24 13 39 44 32 25 17 12 13 6 350 340 334 329 324 321 321 323 323 323 324 324 323 321 316 310 303 295 288 279 272 269 266 263 261 258 254 253 256 257 256 253 248 245 243 242 245 246 243 239 237 235 233 233 233
38 33 27 26 25 13 3 8 4 353 357 2 347 343 3 3 352 355 2 3 4 2 359 357 356 359 7 8 12 20 22 30 53 45 26 17 11 5 2 358 352 343 333 324 319 316 315 318 320 319 317 317 316 313 312 310 305 297 292 290 291 293 286 273 266 262 256 251 249 250 253 252 245 241 240 239 241 242 241 239 238 235 233 232 231
29 31 28 28 25 11 2 7 4 353 351 354 344 345 9 8 357 0 8 9 6 1 358 359 357 359 8 8 3 7 27 54 53 32 18 11 7 1 355 353 353 348 335 324 320 317 312 312 314 312 309 309 309 307 306 306 303 300 296 291 292 302 307 298 283 269 260 254 245 239 241 242 240 237 235 235 237 238 238 239 238 235 234 234 233
32 35 29 29 25 7 359 10 5 351 347 352 345 340 353 8 6 4 11 17 11 1 358 357 354 360 6 360 352 357 15 48 46 24 12 5 359 353 348 348 346 340 334 329 324 317 313 313 315 314 311 310 307 305 303 302 301 300 298 293 289 292 300 303 297 283 267 257 248 241 239 239 239 237 235 236 238 238 236 236 236 235 236 237 235
39 40 30 29 26 6 357 14 8 348 345 358 351 338 340 6 14 4 10 24 14 1 359 355 351 1 2 350 346 354 4 29 35 15 4 1 356 348 344 343 340 333 329 327 322 316 314 316 317 316 313 311 309 305 303 301 300 299 298 294 291 289 290 296 297 287 270 259 251 246 245 244 244 244 243 241 239 235 231 231 232 234 235 236 236
39 41 23 29 39 13 354 7 11 353 349 358 354 344 347 3 6 352 357 27 14 358 359 354 349 357 355 345 348 355 358 11 15 3 359 358 353 349 345 341 338 334 327 324 321 317 314 315 315 315 315 315 313 310 307 305 303 300 296 293 289 287 285 287 285 276 267 264 259 252 250 250 250 251 249 244 236 232 228 224 224 225 225 225 227
35 33 10 24 44 23 355 350 2 355 347 348 351 351 352 356 352 341 348 20 10 354 357 352 345 349 347 342 350 354 351 354 356 354 356 355 351 348 344 339 336 334 328 323 320 317 317 317 318 319 321 321 320 316 312 311 308 304 300 296 292 288 284 282 280 275 268 265 263 260 260 260 258 256 251 241 233 233 231 222 216 216 217 217 219
352 3 21 29 37 23 347 329 332 342 345 345 349 354 355 349 339 332 347 18 5 349 349 343 337 339 337 334 341 345 342 343 343 342 349 352 349 345 340 336 334 331 327 323 321 320 321 322 322 324 320 316 315 316 315 314 312 310 307 302 297 292 284 277 276 275 270 266 267 271 274 275 273 270 266 253 239 234 230 221 215 214 214 212 213
337 344 21 35 36 13 332 324 337 349 350 347 342 342 353 349 334 324 336 7 355 340 332 328 324 322 320 323 329 332 330 330 329 331 340 346 346 343 338 334 331 328 325 323 322 322 323 321 319 318 313 308 310 314 316 317 315 314 313 310 305 296 282 269 266 270 267 261 262 268 272 276 277 279 283 283 270 255 242 227 218 214 211 208 211
344 349 7 35 45 16 333 330 350 352 342 340 337 339 353 352 335 318 299 330 344 336 321 315 316 311 305 304 308 316 318 315 316 325 335 340 343 341 335 331 329 326 325 324 322 321 319 315 312 309 307 307 309 308 309 309 308 308 313 313 307 299 285 272 268 270 267 261 261 264 267 270 274 276 279 282 280 276 267 248 231 221 212 208 213
358 354 356 19 35 4 326 330 355 352 341 341 341 346 352 343 331 320 298 311 332 331 316 308 310 309 302 295 293 302 308 306 310 326 336 341 343 339 332 328 327 325 324 323 321 318 315 310 309 310 309 310 313 316 319 320 319 322 323 318 311 306 300 295 290 285 279 273 268 265 264 267 271 271 271 270 270 271 270 258 242 230 220 215 215
358 348 351 8 12 342 325 340 360 353 342 338 341 347 345 331 326 329 324 318 327 330 322 313 310 308 303 294 289 291 296 298 306 323 337 343 343 337 330 327 326 326 325 322 317 314 315 313 313 318 323 327 332 338 339 337 335 333 328 324 323 321 319 315 311 303 294 286 279 273 271 273 270 266 268 271 272 272 270 260 244 234 229 225 222
347 344 357 5 349 329 334 352 357 346 335 334 341 344 336 322 322 329 329 329 334 334 331 326 320 316 310 301 292 288 288 290 301 320 336 342 340 334 329 327 325 325 326 322 313 309 317 322 324 331 339 344 345 345 342 339 338 335 331 331 332 330 328 327 324 320 315 311 306 299 293 289 280 271 270 272 268 267 271 269 255 242 236 233 230
339 333 338 342 331 333 348 354 345 336 332 338 344 337 322 316 325 334 337 337 333 329 329 330 327 326 326 323 315 305 292 286 296 320 332 336 334 330 326 324 325 329 332 331 326 324 329 334 339 346 350 349 346 343 340 339 338 336 335 336 335 333 334 337 334 329 325 321 315 304 296 296 294 285 277 271 262 259 267 271 263 251 245 244 239
330 316 313 355 359 351 352 347 336 332 337 340 333 318 312 321 335 339 336 329 324 326 332 330 327 334 340 339 338 334 315 296 302 322 329 331 330 327 323 323 330 340 341 339 337 336 338 344 352 354 351 346 342 339 336 336 336 336 337 339 338 338 342 345 342 337 331 325 318 308 299 298 298 290 283 279 273 268 266 266 265 260 256 254 252
317 313 344 71 21 354 345 339 335 334 333 326 313 308 318 335 339 335 331 328 329 335 334 328 330 341 343 340 350 4 357 331 320 323 326 327 327 326 327 331 339 342 340 340 343 343 344 348 353 352 348 345 342 340 337 337 338 338 340 342 341 342 344 345 342 340 338 337 336 331 323 315 310 308 307 301 294 288 280 272 269 265 259 257 259
317 355 52 43 5 348 340 336 333 327 320 316 315 325 337 340 340 340 338 334 334 334 329 329 337 342 337 337 351 0 353 339 331 327 325 327 332 337 339 340 341 341 342 344 348 349 349 350 352 351 348 345 343 341 340 341 341 341 341 341 340 340 341 341 341 341 341 343 345 345 342 339 336 336 333 322 309 302 296 288 280 271 262 256 253
326 37 59 28 0 349 340 333 326 321 323 331 336 340 342 344 346 344 337 332 332 333 332 336 340 337 334 339 349 350 344 339 334 330 330 335 341 344 342 339 340 343 344 347 352 355 353 351 352 350 347 345 343 341 341 342 342 341 341 341 340 339 339 340 342 345 346 346 347 346 344 345 346 345 341 333 323 315 308 301 295 288 278 264 251
347 27 35 8 357 349 335 327 323 326 339 344 342 342 349 352 346 337 332 333 336 337 339 340 338 335 337 343 347 348 344 339 333 331 336 341 341 338 336 338 340 341 343 350 356 356 352 349 348 347 346 345 343 341 341 342 343 342 342 343 342 341 341 341 343 345 345 344 343 342 340 338 338 338 336 333 328 323 318 310 301 294 288 277 266
346 343 339 346 349 343 333 331 334 342 345 343 346 353 355 347 336 332 335 338 338 340 342 340 335 333 337 342 344 342 338 334 331 333 337 337 334 333 336 339 339 339 345 353 354 349 347 347 345 343 344 344 343 341 341 341 341 341 340 340 338 337 337 339 340 341 343 342 341 340 339 336 334 333 330 326 323 320 317 311 302 295 288 280 273
333 323 324 338 348 346 339 339 345 345 341 348 359 358 346 336 333 334 335 336 339 343 341 335 332 333 336 337 336 335 333 331 330 332 334 335 336 338 339 338 336 340 346 349 346 344 346 346 343 341 342 344 344 342 340 339 339 338 335 334 333 332 333 335 336 338 343 345 342 338 334 332 332 332 330 327 323 317 312 308 303 296 289 283 279
323 315 321 336 344 342 340 346 349 344 346 360 359 344 332 333 335 333 334 340 343 341 336 332 332 333 332 330 329 330 331 333 336 338 340 342 341 339 337 334 336 341 344 343 342 344 345 343 340 339 342 345 345 342 338 337 336 334 332 330 330 330 331 333 333 335 340 342 340 335 330 328 327 327 327 327 326 319 310 306 305 301 295 291 286
311 311 325 340 342 340 344 352 349 343 350 356 342 328 329 337 336 334 340 345 341 338 338 337 336 335 335 335 337 339 341 344 346 346 346 347 345 341 337 335 338 341 341 337 338 341 341 338 337 338 340 342 341 338 336 335 332 328 327 327 325 324 326 328 328 330 334 336 335 332 329 326 324 324 324 324 324 320 313 308 307 306 302 296 284
306 318 342 346 342 343 350 351 344 343 350 345 330 328 340 343 338 342 346 343 340 343 344 339 337 338 339 342 347 352 352 349 346 345 345 346 347 344 339 337 337 338 337 334 335 337 337 335 332 331 331 334 335 333 332 331 328 325 324 322 320 322 326 330 331 332 333 333 331 327 324 323 321 320 319 317 316 316 314 309 305 301 299 296 289
319 341 351 342 338 346 351 345 339 344 347 337 329 338 346 343 342 346 344 339 343 347 342 336 337 342 344 345 350 352 349 344 343 344 344 343 343 341 339 336 336 335 335 334 333 333 333 332 330 327 326 328 331 331 330 328 325 321 320 320 320 323 327 330 331 332 332 331 328 322 319 318 316 314 313 311 309 309 309 307 304 300 295 293 290
328 345 342 335 340 348 345 338 338 342 338 331 334 344 344 340 341 341 337 340 347 346 339 339 345 348 349 350 350 348 345 343 342 342 340 339 339 339 338 337 336 334 331 330 331 332 332 332 330 328 326 326 327 327 328 327 323 319 321 322 319 317 318 321 323 326 328 329 325 317 314 313 311 309 308 307 305 304 303 302 302 300 295 291 288
323 341 340 338 342 343 336 333 336 336 331 332 341 345 341 338 337 334 335 345 350 344 340 343 345 343 344 345 345 345 345 343 339 338 337 337 338 338 338 337 335 332 329 330 333 333 333 332 330 328 327 328 328 326 325 324 320 319 322 321 314 310 313 317 319 322 325 326 323 317 312 309 306 305 304 303 302 301 299 299 300 299 296 291 286
312 342 344 335 335 336 332 331 335 335 333 336 342 341 339 337 333 332 341 349 346 340 340 342 339 337 338 341 343 345 344 341 339 338 337 336 337 340 340 339 336 335 335 336 335 334 333 333 332 331 330 331 331 328 324 321 318 317 319 316 310 310 314 318 321 324 327 327 324 319 313 306 302 301 300 299 299 299 297 296 298 299 298 293 285
314 354 345 327 330 334 329 329 336 336 334 338 341 340 338 334 330 333 344 345 337 334 339 340 335 333 335 338 342 345 344 341 339 338 335 334 337 339 339 336 334 335 338 339 339 338 338 337 335 334 333 331 329 326 323 321 319 317 313 310 309 314 319 323 326 327 327 325 322 319 313 306 302 301 299 297 297 297 295 296 298 301 302 298 287
335 358 335 321 331 332 326 333 341 335 332 340 344 338 334 331 330 334 341 339 333 334 336 334 330 330 334 338 342 344 342 340 337 334 332 332 333 333 332 330 329 332 336 339 340 339 338 335 333 331 331 329 326 324 323 322 319 315 311 312 316 320 323 325 326 326 325 323 320 317 313 308 303 301 299 298 295 293 293 296 299 300 302 301 290
340 341 324 324 330 327 329 341 340 331 334 346 344 334 329 328 329 332 337 335 332 332 333 331 329 331 335 337 339 338 335 333 331 329 329 329 328 327 326 325 325 328 333 336 336 334 332 330 328 328 326 325 323 322 323 323 320 317 318 321 322 323 323 324 324 324 324 321 318 316 314 310 303 300 299 298 296 293 293 296 298 299 301 302 294
Height
787 788 789 789 790 790 790 790 790 790 790 790 790 790 790 790 790 790 790 790 790 790 790 789 788 788 788 787 787 787 787 786 787 787 787 787 787 786 787 787 787 786 786 786 786 786 786 786 786 786 785 785 785 784 784 784 783 782 783 783 782 783 783 783 783 781 779 779 778 777 776 776 775 774 775 775 775 776 775 775 775 774 774 773 773
786 786 787 788 788 788 789 789 789 789 789 789 789 789 789 789 789 789 789 789 789 788 788 787 787 787 786 786 785 785 785 784 784 784 785 785 785 785 784 784 785 785 784 784 784 784 784 783 783 784 784 783 783 783 783 782 782 781 781 781 781 781 781 781 781 780 779 779 778 777 775 775 774 774 774 774 775 775 775 774 774 773 773 772 772
785 785 786 786 787 787 788 788 788 788 788 788 788 788 788 788 788 788 788 788 787 787 786 786 786 785 784 784 784 783 783 782 782 782 782 782 783 782 782 782 782 782 782 782 781 781 781 781 781 781 781 781 781 781 781 781 780 780 779 779 778 778 779 778 779 779 779 779 778 776 775 775 774 773 773 773 773 773 773 773 773 772 772 771 771
784 784 785 785 786 786 786 787 787 787 787 787 788 787 787 787 787 787 787 786 786 786 785 785 784 784 783 783 782 781 781 780 780 779 779 779 780 780 780 779 779 779 779 779 779 778 778 778 778 778 778 778 778 778 779 779 778 778 777 777 776 776 776 776 776 776 777 777 777 775 774 773 772 772 772 772 772 772 772 772 771 771 771 771 770
783 783 784 784 785 785 786 786 786 786 786 786 786 786 786 786 786 786 785 785 784 784 784 783 783 782 782 781 781 780 779 778 778 777 776 776 776 777 777 777 776 776 776 776 776 776 776 775 775 776 776 775 775 775 776 776 776 776 775 775 774 774 774 774 774 774 774 774 775 774 772 772 771 770 770 770 770 770 770 770 770 770 770 770 770
782 783 783 784 784 784 784 785 785 785 785 785 785 784 784 784 784 784 783 783 782 782 781 781 780 780 780 779 779 778 777 776 776 775 775 774 773 774 774 774 774 773 773 773 773 773 773 773 773 773 773 772 772 773 773 773 773 774 773 773 773 772 772 772 771 772 772 772 772 771 771 770 769 768 767 768 768 768 768 768 768 769 769 768 768
781 782 783 783 783 783 783 783 783 783 783 783 783 783 783 783 782 782 782 781 781 780 779 779 778 778 777 777 776 775 775 774 773 773 773 772 771 771 771 771 771 771 771 771 771 771 771 771 770 770 770 770 770 770 770 770 770 771 771 771 771 771 770 770 770 770 769 769 769 769 768 767 767 766 766 766 766 766 767 767 767 768 768 768 768
780 781 781 781 782 782 782 782 782 782 782 781 782 781 781 781 780 780 780 779 779 778 778 777 777 776 775 775 774 773 772 771 771 770 770 770 769 769 769 769 769 768 768 768 768 769 768 768 768 768 768 767 767 767 767 767 767 767 768 769 769 769 769 768 768 767 767 767 767 766 765 765 765 764 765 765 765 765 766 766 766 766 767 767 767
778 779 779 780 780 780 780 780 779 780 780 779 779 779 778 778 778 778 777 777 776 776 775 775 774 773 773 772 772 771 769 768 767 767 767 767 767 766 766 766 766 766 766 766 766 766 766 766 765 765 765 765 765 765 765 765 765 765 765 766 767 767 766 766 766 766 765 765 764 764 763 763 763 762 763 763 763 764 764 764 764 765 766 766 765
775 777 778 778 778 778 778 778 778 778 778 777 777 777 777 776 776 776 775 774 774 773 773 772 771 770 770 769 769 768 767 766 764 764 764 764 764 764 763 763 763 763 763 763 763 763 763 763 762 762 762 762 762 762 762 763 762 763 763 764 764 765 764 764 764 764 764 763 762 762 761 760 760 760 760 760 760 761 761 761 762 763 764 764 764
774 775 776 777 777 777 776 777 777 777 776 776 777 776 776 775 775 774 773 772 772 771 770 769 768 768 767 766 766 765 764 763 762 762 762 761 761 760 760 760 759 760 760 760 760 759 759 760 759 759 759 759 758 758 759 759 760 760 761 761 762 762 762 762 762 762 762 761 760 760 759 758 758 758 758 758 757 758 758 760 760 761 762 763 762
774 775 775 776 776 776 776 776 777 776 776 776 776 775 775 775 774 773 772 771 770 769 768 767 766 766 764 763 763 762 761 762 762 761 760 760 759 758 758 757 756 755 757 757 757 757 756 756 756 756 756 756 755 755 755 756 756 757 758 758 759 759 760 760 760 760 760 759 759 758 757 756 756 756 756 756 755 756 756 757 758 759 760 761 761
774 775 775 776 776 776 777 777 777 777 776 776 776 776 775 774 773 773 771 770 769 768 767 766 765 764 763 762 761 760 760 761 761 760 758 757 757 757 757 758 756 755 756 756 756 755 755 755 754 754 754 753 752 752 752 753 753 754 754 754 755 755 756 757 757 757 758 758 757 756 755 755 754 754 754 754 754 754 754 755 756 756 757 758 758
775 776 777 777 777 777 778 777 778 778 777 777 777 776 776 775 774 773 771 770 769 767 766 765 764 763 762 761 760 758 758 758 757 757 756 755 755 754 755 756 757 757 757 756 755 753 752 753 754 753 753 751 750 749 749 749 750 751 752 752 751 751 752 753 753 754 755 755 755 753 753 753 753 752 753 753 752 753 753 753 754 754 755 755 756
776 777 778 778 778 779 779 779 779 779 779 778 778 777 776 775 774 773 772 770 769 767 766 764 763 762 761 760 758 757 757 756 756 755 754 753 753 752 752 753 754 755 755 755 754 751 749 750 751 751 751 749 748 747 746 746 746 748 749 749 749 749 749 749 749 749 750 750 750 749 749 750 750 750 750 751 751 751 751 752 752 752 753 753 753
778 779 779 780 780 781 781 781 781 780 780 779 778 777 777 775 774 773 772 771 769 767 766 765 763 762 761 759 758 757 757 756 755 754 753 752 752 751 751 751 751 750 751 751 751 749 747 747 747 747 746 746 745 744 743 744 745 746 746 744 744 746 747 747 746 745 746 746 745 745 745 746 747 747 748 749 749 749 750 750 750 750 751 751 751
779 780 781 782 782 782 782 782 782 781 780 779 779 778 777 775 774 773 772 771 769 767 766 765 764 763 761 759 758 757 757 756 755 754 752 752 752 752 751 751 750 749 749 749 749 748 746 744 743 743 742 741 741 741 741 741 741 741 744 744 743 741 741 742 742 743 743 743 742 742 742 743 743 744 745 746 746 747 748 747 747 748 749 749 748
781 782 782 783 783 783 783 783 782 782 781 780 779 778 777 776 775 773 772 771 769 768 767 765 764 762 761 760 759 758 757 756 755 754 753 753 754 753 751 750 750 749 748 748 747 745 744 743 742 741 740 738 739 739 738 737 736 736 738 741 741 739 735 735 736 738 739 739 739 740 739 739 740 741 742 742 743 744 745 744 745 746 746 746 745
782 782 783 783 783 784 784 783 783 782 781 780 780 779 777 776 775 773 773 771 769 768 767 765 764 762 760 760 759 758 758 757 756 756 755 755 754 753 752 751 750 749 748 747 745 744 743 742 740 739 738 737 737 737 736 736 736 735 734 735 736 735 733 732 732 733 734 734 735 736 735 735 736 738 738 738 739 740 740 740 741 743 742 742 743
783 783 783 783 784 784 784 784 783 782 782 781 780 779 778 776 775 774 773 771 769 768 767 765 763 762 760 759 758 758 758 758 757 757 756 756 755 754 753 753 751 750 748 746 745 743 742 741 740 738 737 736 735 735 734 734 734 732 731 731 730 729 728 729 729 730 731 731 730 731 731 731 732 733 732 732 733 734 735 735 737 738 739 739 739
783 784 784 783 784 785 784 784 783 782 782 781 780 779 778 777 776 774 773 772 770 769 767 766 764 762 761 760 759 758 758 758 758 758 757 757 756 755 755 754 752 751 749 747 745 743 742 741 739 738 737 735 734 733 732 732 731 729 728 727 726 726 726 726 726 727 728 727 726 727 728 727 726 726 726 727 727 728 729 730 731 733 733 734 735
784 784 784 784 784 784 784 784 783 782 782 781 780 779 778 777 776 774 773 772 771 770 769 766 765 763 762 761 761 759 759 758 759 759 758 758 757 756 755 754 752 751 749 747 746 744 742 741 739 738 737 735 734 732 731 730 728 727 725 724 723 723 723 723 724 725 725 724 724 724 724 723 722 721 721 721 722 722 723 724 725 727 728 729 730
784 784 784 784 784 784 784 784 783 783 782 781 780 779 778 777 776 775 774 773 772 771 770 768 766 765 764 763 762 761 760 759 759 759 758 758 757 756 754 753 752 750 749 747 745 743 741 740 738 737 735 734 732 730 728 727 725 723 722 721 720 719 719 719 720 721 722 722 721 720 719 718 718 717 716 716 716 716 717 718 719 721 723 724 725
785 784 784 784 784 784 784 784 784 783 782 781 780 778 777 777 776 775 775 774 773 772 771 769 768 766 765 765 763 762 761 760 759 759 759 758 757 755 754 753 751 750 748 746 744 742 740 738 736 735 733 731 729 727 725 723 721 720 719 718 717 716 715 715 715 716 717 717 717 716 715 714 713 712 711 710 710 711 713 713 714 716 718 719 719
784 784 785 784 784 785 784 784 784 783 782 781 780 779 778 776 775 775 774 774 774 773 772 771 769 768 767 766 764 763 762 761 760 760 759 758 757 755 754 752 751 749 747 745 743 741 739 737 734 732 729 727 725 723 721 719 717 716 715 714 714 713 712 711 711 712 713 713 712 711 710 709 707 706 706 706 707 708 709 710 710 712 713 714 715
785 785 785 784 784 785 784 784 784 783 782 782 781 779 778 777 776 775 774 774 774 774 773 772 770 769 769 767 765 764 763 762 761 760 759 758 756 754 753 751 749 748 746 744 742 740 737 735 732 729 726 723 721 719 717 715 714 713 712 711 710 710 709 708 707 708 709 710 710 708 706 705 704 702 702 703 704 704 704 705 706 707 709 710 711
785 784 784 784 784 785 784 784 784 783 782 782 781 780 779 778 777 776 774 774 774 774 773 772 771 770 769 768 766 765 764 763 761 760 759 757 755 753 751 749 748 746 745 743 741 738 735 732 729 726 723 721 718 717 715 713 712 710 709 708 707 706 706 705 705 705 705 707 707 706 703 702 701 699 698 698 698 699 700 701 701 702 704 705 706
784 784 784 784 784 785 785 784 783 782 781 780 780 779 779 778 777 775 774 774 774 773 773 772 771 770 769 768 766 765 764 763 761 760 758 756 754 752 750 748 746 745 743 741 739 736 733 730 726 724 722 719 717 715 713 711 710 708 707 706 704 704 703 703 703 702 702 703 703 702 701 700 699 697 697 696 695 695 696 696 696 697 699 701 702
784 784 784 784 784 785 785 784 782 782 781 780 779 779 778 777 777 775 774 774 773 773 772 771 770 770 768 767 766 764 763 762 760 759 758 756 754 752 749 747 745 743 741 740 737 733 731 728 725 723 721 718 716 714 712 711 709 707 706 705 704 703 702 701 701 700 699 699 699 698 698 698 697 696 696 696 696 695 695 694 693 693 695 697 697
784 784 784 784 785 785 785 784 783 783 782 780 779 778 777 777 776 774 773 773 772 771 771 770 769 768 767 766 765 764 762 761 759 759 757 756 754 752 749 747 745 742 740 738 735 732 729 727 725 723 720 718 715 713 711 709 708 706 705 704 703 702 700 700 699 698 697 696 695 695 695 695 694 693 692 693 693 694 695 695 695 694 693 693 692
785 785 784 784 785 785 785 784 783 783 782 780 779 778 777 777 775 774 773 772 771 770 769 768 768 767 765 764 763 762 761 760 758 758 757 755 753 751 748 745 743 741 738 736 733 731 729 727 725 722 719 717 714 712 711 709 707 706 705 703 703 702 701 700 698 697 696 695 693 692 692 692 692 691 689 688 689 690 692 694 694 694 693 691 689
785 785 785 785 785 785 785 784 783 783 782 781 780 779 778 776 775 773 772 771 770 769 768 767 766 765 763 762 761 760 759 758 758 757 755 754 752 749 746 744 741 739 737 734 731 729 728 727 725 722 719 717 715 713 712 710 708 707 705 704 703 701 701 699 697 696 696 694 692 691 690 689 689 688 687 687 687 687 687 689 690 691 690 689 687
785 785 785 785 785 785 785 784 783 783 782 781 780 779 778 777 774 773 772 771 769 768 767 766 765 763 762 761 760 758 757 757 757 756 754 753 750 748 745 742 740 737 735 732 730 729 728 726 724 722 721 719 717 716 714 712 710 709 707 705 703 701 700 699 697 695 694 693 692 692 691 689 688 687 686 686 686 686 685 686 687 687 687 685 684
785 784 784 784 784 784 784 784 784 783 782 782 781 779 778 777 774 773 772 770 769 768 767 765 764 762 761 760 758 757 756 756 756 755 753 751 749 746 743 741 739 737 735 733 731 729 728 726 725 724 722 721 719 718 716 714 712 710 708 706 704 702 700 699 698 696 694 692 691 690 689 689 688 687 686 684 683 682 682 683 684 684 683 682 681
784 784 783 784 784 784 784 784 784 783 782 782 781 779 778 776 774 774 772 771 769 767 766 765 763 762 760 759 758 756 756 756 756 755 752 750 748 745 742 739 738 736 735 733 732 730 728 727 726 725 724 722 720 718 716 714 713 711 709 707 705 703 701 699 698 697 695 692 691 689 688 688 687 686 686 684 682 681 679 678 679 679 680 680 679
783 783 783 783 784 784 784 784 783 783 782 781 780 778 777 776 775 774 772 771 770 768 766 765 763 761 761 759 758 756 756 756 755 753 751 749 747 744 742 740 738 737 735 734 732 731 729 728 726 725 724 723 721 719 717 715 714 712 710 708 706 704 702 700 699 697 695 693 692 690 689 688 687 686 685 683 682 681 680 678 676 675 675 677 677
783 782 782 783 784 784 783 783 783 782 782 780 779 778 777 776 775 774 773 772 770 768 767 765 763 762 761 759 758 757 756 755 754 752 750 748 746 744 743 741 739 737 736 734 733 731 730 729 728 727 726 724 722 721 719 717 715 713 711 709 707 705 703 701 699 698 696 694 692 691 690 689 688 686 684 682 681 681 680 679 677 675 674 673 674
782 781 782 783 783 783 783 783 782 781 780 779 778 778 777 776 776 775 774 772 770 769 767 765 764 763 761 759 758 757 756 755 753 751 749 748 746 744 743 741 739 738 736 735 734 733 731 730 729 728 727 725 724 722 720 718 716 714 712 710 708 706 704 702 700 698 696 695 693 691 690 689 688 687 685 683 681 680 679 677 676 674 673 672 671
781 781 782 783 783 783 783 782 781 780 780 779 779 778 777 777 777 775 774 772 771 769 768 766 765 763 761 760 759 757 755 754 752 750 749 748 746 745 743 741 740 738 737 736 735 734 733 732 730 729 728 726 725 723 721 719 717 715 713 711 709 707 705 703 701 699 697 696 694 692 691 690 689 687 686 684 682 680 678 676 674 672 671 670 669
782 782 783 783 783 783 782 781 781 780 779 779 779 778 778 778 777 775 774 773 771 770 769 767 766 764 762 761 759 757 755 754 752 750 749 747 746 744 743 741 740 739 738 737 735 734 733 732 731 729 728 726 725 723 721 719 717 715 713 712 710 708 706 704 702 700 698 697 695 693 691 690 689 687 685 683 681 680 678 675 673 670 669 668 667
783 783 783 782 782 782 781 781 780 780 779 779 779 779 779 778 777 775 774 773 771 770 769 768 766 764 763 761 759 758 756 753 751 750 749 748 746 745 743 742 741 739 738 737 736 734 733 732 731 730 728 726 724 723 721 719 717 715 713 711 710 708 706 705 703 701 699 697 695 693 691 689 687 685 683 681 679 677 676 673 671 669 667 666 665
784 783 782 782 782 781 781 781 780 780 779 779 779 779 779 777 776 775 774 772 772 771 769 768 766 764 762 760 758 756 755 753 751 750 749 748 747 745 744 743 741 740 739 738 736 734 733 732 731 730 728 726 724 723 721 720 718 716 714 712 709 708 706 704 702 701 698 696 694 692 690 687 685 683 681 679 677 675 673 672 669 667 665 664 663
784 782 782 782 782 781 781 780 780 780 780 779 779 779 778 777 776 775 773 772 772 770 769 767 766 764 762 760 757 756 754 753 752 750 749 748 746 745 744 743 742 740 739 738 736 734 733 731 730 729 728 726 725 723 722 720 718 716 714 712 710 708 706 704 702 700 697 695 693 691 688 686 683 681 679 677 675 673 671 670 668 666 664 662 661
782 782 782 782 781 781 781 780 780 780 780 779 779 778 777 776 776 774 773 773 771 770 769 768 766 764 762 760 758 757 755 754 752 751 749 747 746 744 744 743 741 740 738 737 735 734 732 731 729 728 726 725 724 723 721 720 718 716 714 712 710 708 706 703 701 700 697 695 692 690 687 685 682 680 678 676 674 672 669 667 665 663 662 660 659
782 782 782 782 781 781 781 780 780 780 779 779 778 777 777 776 775 774 774 773 771 770 769 767 765 764 762 760 759 758 756 754 753 751 749 748 746 744 743 742 741 739 738 736 735 733 731 730 728 726 725 723 722 721 719 718 716 715 714 712 709 707 705 703 701 699 697 695 692 689 687 684 681 679 677 675 673 671 668 665 663 661 659 658 656
782 782 782 782 781 781 781 781 780 780 779 779 778 777 777 776 775 774 773 772 771 770 769 767 765 764 763 761 760 759 757 755 753 751 750 748 746 744 743 741 740 739 737 735 733 732 730 728 727 725 723 722 720 719 717 716 714 714 712 711 709 706 704 702 701 699 697 694 691 688 686 683 680 678 675 673 671 669 666 663 661 659 657 655 653
782 781 782 781 781 781 781 780 780 779 779 778 777 777 777 776 775 774 773 771 771 770 768 767 766 765 763 762 760 759 757 756 754 751 750 748 746 744 743 741 740 738 736 734 733 731 729 727 726 724 722 721 719 717 716 714 713 712 711 709 707 705 703 702 700 698 696 693 690 687 684 681 678 676 673 671 669 666 663 661 659 656 654 652 650
781 781 781 781 781 781 781 780 780 779 779 778 777 777 777 776 775 773 772 771 771 770 768 767 766 764 763 762 760 759 758 756 754 752 750 748 746 745 743 741 740 738 736 734 732 730 728 726 725 723 721 719 718 716 715 713 711 710 709 707 706 704 702 700 698 696 693 691 688 685 682 679 677 674 671 668 666 663 660 658 656 654 651 649 647
780 780 781 781 781 781 780 780 780 779 779 778 778 777 776 776 774 773 772 772 771 770 768 767 766 764 763 762 760 759 758 757 755 753 751 748 747 745 743 741 740 738 735 733 732 730 728 726 724 722 721 719 717 715 713 711 709 708 706 705 703 702 700 698 696 694 691 688 685 682 679 676 674 671 668 665 663 660 658 655 653 651 649 646 644
779 780 781 781 781 780 780 780 780 779 779 778 778 777 776 775 774 773 772 772 771 769 768 767 766 764 763 761 760 759 758 757 755 753 751 749 747 745 743 742 740 737 735 733 731 730 728 726 724 722 720 718 716 714 712 710 708 706 704 703 701 699 697 695 693 691 688 685 682 679 676 673 670 667 665 662 660 657 655 652 650 648 646 643 640
780 780 781 781 780 780 780 780 780 779 779 778 778 778 777 775 774 773 772 772 771 769 768 767 766 764 763 762 761 759 758 757 755 753 751 749 747 745 743 741 739 736 735 733 731 729 728 725 723 721 719 717 715 713 711 709 707 704 702 701 699 697 695 693 690 687 685 682 679 676 673 670 667 664 661 659 657 654 652 650 647 645 643 640 637